Stuart, FL

9:37 PM EDT on April 29, 2017 (GMT -0400)
Witham

Weather History for KSUA - March, 2014

Change the Weather History Date:

Wednesday, March 12, 2014

  Actual Average Record
Temperature  
Mean Temperature 77 °F -  
Max Temperature 86 °F 77 °F 90 °F (1964)
Min Temperature 68 °F 57 °F 40 °F (1969)
Cooling Degree Days 12    
Growing Degree Days 27 (Base 50)    
Moisture  
Dew Point 62 °F    
Average Humidity 72    
Maximum Humidity 83    
Minimum Humidity 27    
Precipitation  
Precipitation 0.00 in - - ()
Sea Level Pressure  
Sea Level Pressure 29.85 in    
Wind  
Wind Speed 7 mph (SW)    
Max Wind Speed 21 mph    
Max Gust Speed 29 mph    
Visibility 9 miles    
Events      
Averages and records for this station are not official NWS values.
T = Trace of Precipitation, MM = Missing Value Source: NWS Daily Summary

Daily Weather History Graph

Daily Weather History Graph

Search for Another Location

Airport or City:

Trip Planner

Search our weather history database for the weather conditions in past years. The results will help you decide how hot, cold, wet, or windy it might be!

Date:

Astronomy

Mar. 12, 2014 Rise Set
Actual Time 7:33 AM EDT 7:27 PM EDT
Civil Twilight 7:10 AM EDT 7:51 PM EDT
Nautical Twilight 6:43 AM EDT 8:18 PM EDT
Astronomical Twilight 6:16 AM EDT 8:45 PM EDT
Moon 4:11 PM EDT (3/12) 4:48 AM EDT (3/12)
Length of Visible Light 12h 40m
Length of Day
11h 54m
Waxing Gibbous, 85% of the Moon is Illuminated
Mar 12
Waxing Gibbous
Mar 16
Full
Mar 23
Last Quarter
Mar 30
New
Apr 7
First Quarter

Hourly Weather History & Observations

Time (EDT) Temp. Heat Index Dew Point Humidity Pressure Visibility Wind Dir Wind Speed Gust Speed Precip Events Conditions
12:15 AM 69.8 °F - 62.6 °F 78% 29.90 in 10.0 mi SSW 4.6 mph - N/A   Clear
12:35 AM 69.8 °F - 62.6 °F 78% 29.90 in 10.0 mi SSW 5.8 mph - N/A   Clear
12:55 AM 69.8 °F - 62.6 °F 78% 29.90 in 10.0 mi SSW 5.8 mph - N/A   Clear
1:15 AM 69.8 °F - 62.6 °F 78% 29.89 in 10.0 mi SSW 5.8 mph - N/A   Clear
1:35 AM 69.8 °F - 62.6 °F 78% 29.89 in 10.0 mi South 4.6 mph - N/A   Clear
1:55 AM 69.8 °F - 62.6 °F 78% 29.88 in 10.0 mi South 4.6 mph - N/A   Clear
2:15 AM 69.8 °F - 62.6 °F 78% 29.88 in 10.0 mi SW 3.5 mph - N/A   Clear
2:35 AM 68.0 °F - 62.6 °F 83% 29.88 in 10.0 mi SW 3.5 mph - N/A   Clear
2:55 AM 68.0 °F - 62.6 °F 83% 29.88 in 10.0 mi Calm Calm - N/A   Clear
3:15 AM 68.0 °F - 62.6 °F 83% 29.87 in 10.0 mi Calm Calm - N/A   Clear
3:35 AM 68.0 °F - 62.6 °F 83% 29.87 in 10.0 mi Calm Calm - N/A   Clear
3:55 AM 68.0 °F - 62.6 °F 83% 29.86 in 10.0 mi Calm Calm - N/A   Clear
4:15 AM 68.0 °F - 62.6 °F 83% 29.84 in 10.0 mi South 3.5 mph - N/A   Clear
4:35 AM 68.0 °F - 62.6 °F 83% 29.84 in 10.0 mi South 5.8 mph - N/A   Clear
4:55 AM 68.0 °F - 62.6 °F 83% 29.83 in 10.0 mi South 6.9 mph - N/A   Clear
5:15 AM 68.0 °F - 62.6 °F 83% 29.82 in 10.0 mi South 6.9 mph - N/A   Clear
5:35 AM 68.0 °F - 62.6 °F 83% 29.83 in 10.0 mi SSW 8.1 mph - N/A   Clear
5:55 AM 68.0 °F - 62.6 °F 83% 29.84 in 10.0 mi SSW 6.9 mph - N/A   Clear
6:15 AM 68.0 °F - 62.6 °F 83% 29.84 in 10.0 mi SSW 4.6 mph - N/A   Clear
6:47 AM 69.8 °F - 64.4 °F 83% 29.84 in 10.0 mi SSW 5.8 mph - N/A   Scattered Clouds
7:47 AM 69.8 °F - 64.4 °F 83% 29.86 in 10.0 mi SSW 6.9 mph - N/A   Scattered Clouds
8:47 AM 71.6 °F - 66.2 °F 83% 29.87 in 7.0 mi SSW 6.9 mph - N/A   Scattered Clouds
9:47 AM 75.2 °F - 66.2 °F 73% 29.87 in 7.0 mi SSW 13.8 mph 20.7 mph N/A   Scattered Clouds
10:47 AM 80.6 °F 82.3 °F 64.4 °F 58% 29.88 in 7.0 mi SW 13.8 mph 28.8 mph N/A   Scattered Clouds
11:47 AM 82.4 °F 82.0 °F 57.2 °F 42% 29.88 in 7.0 mi WSW 16.1 mph 27.6 mph N/A   Scattered Clouds
12:55 PM 84.2 °F 82.8 °F 53.6 °F 35% 29.85 in 7.0 mi WSW 19.6 mph 27.6 mph N/A   Mostly Cloudy
2:47 PM 86.0 °F - 48.2 °F 27% 29.78 in 7.0 mi WSW 17.3 mph 27.6 mph N/A   Scattered Clouds
3:47 PM 86.0 °F - 48.2 °F 27% 29.77 in 7.0 mi WSW 20.7 mph 28.8 mph N/A   Mostly Cloudy
4:47 PM 84.2 °F - 50.0 °F 30% 29.76 in 7.0 mi WSW 20.7 mph 28.8 mph N/A   Mostly Cloudy
6:47 PM 77.0 °F - 62.6 °F 61% 29.79 in 7.0 mi West 15.0 mph 20.7 mph N/A   Mostly Cloudy
8:15 PM 73.4 °F - 60.8 °F 65% 29.82 in 10.0 mi WSW 9.2 mph - N/A   Scattered Clouds
8:35 PM 73.4 °F - 62.6 °F 69% 29.83 in 10.0 mi WSW 11.5 mph 20.7 mph N/A   Clear
8:55 PM 73.4 °F - 62.6 °F 69% 29.83 in 10.0 mi WSW 10.4 mph 18.4 mph N/A   Clear
9:15 PM 73.4 °F - 64.4 °F 73% 29.84 in 10.0 mi WSW 10.4 mph 17.3 mph N/A   Clear
9:35 PM 73.4 °F - 64.4 °F 73% 29.84 in 10.0 mi WSW 9.2 mph - N/A   Clear
9:55 PM 73.4 °F - 64.4 °F 73% 29.85 in 10.0 mi WSW 11.5 mph - N/A   Clear
10:15 PM 73.4 °F - 64.4 °F 73% 29.86 in 10.0 mi WSW 10.4 mph - N/A   Clear
10:35 PM 73.4 °F - 64.4 °F 73% 29.86 in 10.0 mi West 10.4 mph - N/A   Clear
10:55 PM 71.6 °F - 64.4 °F 78% 29.86 in 10.0 mi WSW 10.4 mph - N/A   Clear
11:15 PM 71.6 °F - 64.4 °F 78% 29.87 in 10.0 mi WSW 9.2 mph - N/A   Clear
11:35 PM 71.6 °F - 64.4 °F 78% 29.87 in 10.0 mi WSW 11.5 mph - N/A   Clear
11:55 PM 71.6 °F - 64.4 °F 78% 29.87 in 10.0 mi West 10.4 mph - N/A   Clear